カタログに戻る

ATLAS 5 CENTAUR DEB

運用中HEO
NORAD 44682·DEBRIS·🇺🇸 United States

打ち上げ Oct 17, 2018 から Cape Canaveral Space Force Station

Loading…

次のパス (今後24時間)

TLE

経年Source: Space-Track

元期: Aug 28, 2026, 11:32 UTC

1 44682U 18079AU  26240.48081970 -.00000157  00000-0  00000-0 0  9994
2 44682  13.4665  30.0624 4639360 323.6264  12.2258  1.81923697 48179

AllMySatでATLAS 5 CENTAUR DEBをリアルタイム追跡

Download on the App Store